{"data":{"norad_id":68419,"intl_designator":"2026-067D","name":"FEMTO-1","alt_names":[],"object_type":"PAYLOAD","status":"ACTIVE","operator":null,"country":"BUL","launch_date":"2026-03-30","launch_site_code":"AFWTR","launch_vehicle":null,"mission":null,"orbit_class":"UNKNOWN","rcs_meters":null,"size_class":null,"mass_kg":null,"dimensions":null,"purposes":[],"wikipedia_slug":null,"has_3d_model":false,"image_url":null,"decayed_at":null,"tle_current":{"epoch":"2026-09-19T16:38:17.676096Z","epoch_age_seconds":138661,"freshness":"FRESH","line1":"1 68419U 26067D   26262.69326014  .00002156  00000+0  10509-3 0  9999","line2":"2 68419  97.4647 220.0433 0000900  20.8471 339.2800 15.19399893 26293","mean_motion":15.19399893,"eccentricity":9.0e-5,"inclination_deg":97.4647,"raan_deg":220.0433,"arg_perigee_deg":20.8471,"mean_anomaly_deg":339.28,"bstar":0.00010509,"rev_number":2629,"period_min":94.774259668847,"perigee_km":507.03338508659,"apogee_km":508.2728273057,"semimajor_km":6885.7901061961,"source":"CELESTRAK","updated_at":"2026-09-20T09:00:24.198624Z"}}}